[[{"header":{"parameterUnit":"m.s-1","parameterCategory":1,"la1":30.2991,"la2":30.254,"lo1":-89.0895,"lo2":-89.0444,"dy":0.0017,"dx":0.0017,"nx":28,"ny":28,"refTime":"2025-09-07T21:00:00:Z","depth":0,"parameterNumber":2,"parameterNumberName":"U-component_of_WINDS"},"data":[0,0,0,0,0,0,0,0,0,0,0,0,0,0,0,0,0,0,0,0,0,0,0,0,0,0,0,0,0,0,0,0,0,0,0,0,0,0,0,0,0,0,0,0,0,0,0,0,0,0,0,0,0,0,0,0,0,0,-2.2396,-2.2396,0,-2.2395,-2.2395,-2.2395,-2.2318,-2.2316,-2.2314,-2.2312,-2.2314,-2.2316,-2.2318,0,0,0,0,0,0,0,0,0,0,0,0,0,-2.2333,-2.2335,-2.2396,-2.2396,-2.2396,-2.2395,-2.2395,-2.2395,-2.2319,-2.2316,-2.2314,-2.2312,-2.2313,-2.2315,-2.2318,0,0,0,0,0,0,0,0,0,0,0,0,0,-2.2349,-2.2335,-2.2396,-2.2358,-2.2354,-2.2395,-2.2395,-2.2395,-2.2319,-2.2316,-2.2313,-2.231,-2.2312,-2.2315,-2.2318,-2.2396,0,0,-2.2327,-2.2328,0,0,0,0,0,0,0,0,-2.2349,-2.2352,-2.2364,-2.2361,-2.2357,-2.2354,-2.2373,-2.2396,-2.232,-2.2333,-2.2312,-2.2309,-2.233,-2.2331,-2.2337,-2.2396,-2.2396,-2.2327,-2.2329,-2.233,-2.2331,0,0,0,0,0,0,0,-2.2348,-2.2351,-2.2396,-2.2364,-2.236,-2.2341,-2.234,-2.2377,-2.2348,-2.2331,-2.2326,-2.2327,-2.2327,-2.2335,-2.2337,-2.2396,-2.2327,-2.233,-2.2331,-2.2332,-2.2518,-2.2521,0,0,0,0,0,0,-2.2351,-2.2351,-2.2396,-2.2396,-2.2345,-2.2345,-2.2343,-2.2358,-2.2348,-2.2343,-2.2329,-2.2323,-2.2331,-2.2334,-2.2337,-2.2427,-2.233,-2.2333,-2.2334,-2.2515,-2.2519,-2.2522,0,0,0,0,0,0,-2.235,-2.2356,-2.2396,-2.2372,-2.2376,-2.2349,-2.2366,-2.2359,-2.2367,-2.2346,-2.234,-2.2342,-2.2329,-2.2333,-2.2382,-2.2426,-2.2334,-2.2337,-2.2511,-2.2516,-2.2521,-2.261,0,0,0,0,0,0,-2.2349,-2.2356,-2.2386,-2.2373,-2.2377,-2.2441,-2.2368,-2.2362,-2.2372,-2.2364,-2.2357,-2.2353,-2.2327,-2.2378,-2.2385,-2.2429,-2.2339,-2.2507,-2.2513,-2.2519,-2.2603,-2.2617,-2.2629,0,0,0,0,0,-2.2347,-2.2412,-2.2388,-2.2394,-2.2413,-2.2444,-2.2446,-2.2415,-2.2376,-2.2405,-2.2391,-2.2353,-2.242,-2.2383,-2.239,-2.2436,-2.2504,-2.2512,-2.2519,-2.2597,-2.2614,-2.2629,0,0,0,0,0,0,-2.2432,-2.2409,-2.2383,-2.2445,-2.2447,-2.2431,-2.2467,-2.2434,-2.2448,-2.244,-2.2401,-2.24,-2.2455,-2.245,-2.241,-2.2511,-2.2455,-2.2464,-2.2512,-2.2529,-2.2542,-2.2542,-2.2341,0,0,0,0,0,-2.2457,-2.2484,-2.2463,-2.252,-2.2522,-2.2495,-2.2507,-2.2482,-2.2483,-2.2483,-2.2473,-2.2476,-2.2497,-2.2512,-2.2531,-2.2601,-2.2598,-2.2636,-2.2649,-2.266,-2.2669,-2.2705,-2.2721,-2.2546,-2.2546,-2.2546,0,0,-2.2512,-2.2502,-2.2522,-2.2537,-2.2535,-2.2563,-2.2496,-2.2529,-2.255,-2.2488,-2.2534,-2.2526,-2.2527,-2.2586,-2.2612,-2.2584,-2.2716,-2.2669,-2.2678,-2.2681,-2.2714,-2.2731,-2.2746,-2.2551,-2.255,-2.2549,0,0,-2.2625,-2.262,-2.2667,-2.2666,-2.2664,-2.2645,-2.2656,-2.2645,-2.2637,-2.2681,-2.2636,-2.266,-2.2698,-2.27,-2.2706,-2.2817,-2.2782,-2.2824,-2.2894,-2.293,-2.2944,-2.2956,-2.2996,-2.3011,-2.2832,-2.2833,-2.2833,0,-2.2693,-2.2733,-2.2695,-2.2731,-2.2739,-2.2683,-2.273,-2.2731,-2.2736,-2.2743,-2.2711,-2.2756,-2.2753,-2.2812,-2.2839,-2.2845,-2.2857,-2.2826,-2.2945,-2.2956,-2.2967,-2.3005,-2.302,-2.2838,-2.2837,-2.2837,-2.2836,0,-2.2816,-2.2845,-2.2883,-2.2887,-2.2899,-2.2941,-2.291,-2.2926,-2.29,-2.2884,-2.293,-2.2923,-2.2939,-2.2951,-2.2926,-2.3006,-2.2989,-2.2951,-2.2895,-2.299,-2.3025,-2.3039,-2.2845,-2.2843,-2.2842,-2.2841,0,0,-2.2986,-2.2967,-2.2982,-2.2982,-2.2975,-2.2996,-2.3034,-2.3049,-2.3064,-2.3068,-2.31,-2.3132,-2.3097,-2.3103,-2.3078,-2.3109,-2.3198,-2.3068,-2.3067,-2.3093,-2.3287,-2.3316,-2.3333,-2.3174,-2.3177,-2.3179,-2.3287,0,-2.3096,-2.316,-2.3126,-2.3195,-2.322,-2.3166,-2.3199,-2.3199,-2.3185,-2.3205,-2.3189,-2.3213,-2.3164,-2.3167,-2.3196,-2.3181,-2.3237,-2.3173,-2.3204,-2.3206,-2.3207,-2.3351,-2.3383,-2.3485,-2.33,-2.3302,-2.3304,0,-2.3233,-2.3242,-2.3313,-2.3299,-2.3308,-2.3339,-2.3349,-2.3368,-2.3366,-2.3353,-2.336,-2.3326,-2.3363,-2.3306,-2.3356,-2.3313,-2.3324,-2.3318,-2.3321,-2.3325,-2.3262,-2.336,-2.3517,-2.3533,-2.3325,-2.3323,-2.3322,0,-2.335,-2.338,-2.3425,-2.3428,-2.3413,-2.3435,-2.343,-2.3424,-2.3435,-2.3443,-2.3449,-2.3463,-2.347,-2.3481,-2.3452,-2.3413,-2.3507,-2.3447,-2.3498,-2.3499,-2.3522,-2.3521,-2.3685,-2.3527,-2.3526,-2.3526,-2.3526,0,-2.3478,-2.3524,-2.3478,-2.3506,-2.3556,-2.3516,-2.3566,-2.3555,-2.355,-2.3576,-2.353,-2.3555,-2.3514,-2.3535,-2.3513,-2.3558,-2.3562,-2.3553,-2.3547,-2.3558,-2.3559,-2.3566,-2.3558,-2.353,-2.3529,-2.3528,-2.3528,0,-2.3618,-2.3589,-2.3636,-2.3616,-2.3613,-2.365,-2.3634,-2.3659,-2.3641,-2.3674,-2.3679,-2.3651,-2.3673,-2.3645,-2.3665,-2.3649,-2.3711,-2.3694,-2.3712,-2.3708,-2.3761,-2.3757,-2.3935,-2.3957,-2.3784,-2.3785,-2.3787,0,-2.3702,-2.3736,-2.3719,-2.3732,-2.373,-2.3752,-2.3761,-2.3723,-2.3735,-2.3733,-2.376,-2.3777,-2.379,-2.3828,-2.381,-2.3825,-2.3808,-2.3869,-2.381,-2.382,-2.381,-2.3809,-2.3812,-2.3883,-2.3885,-2.3886,-2.3888,0,-2.3855,-2.3838,-2.3853,-2.3863,-2.3875,-2.3882,-2.3884,-2.3898,-2.3858,-2.3874,-2.3895,-2.3905,-2.3924,-2.3943,-2.3952,-2.3947,-2.3912,-2.3906,-2.3919,-2.3931,-2.3941,-2.3937,-2.3747,-2.3903,-2.3901,-2.39,-2.3899,-2.3899,-2.397,-2.3997,-2.3989,-2.4007,-2.4005,-2.4008,-2.4031,-2.4014,-2.4031,-2.4043,-2.4019,-2.4047,-2.4042,-2.4051,-2.405,-2.4071,-2.4044,-2.4063,-2.4068,-2.4073,-2.4082,-2.3936,-2.4072,-2.4072,-2.4071,-2.4071,-2.4071,0,-2.4121,-2.4112,-2.4129,-2.4133,-2.4147,-2.411,-2.411,-2.4125,-2.4149,-2.4147,-2.416,-2.4184,-2.4202,-2.4184,-2.4198,-2.4218,-2.4202,-2.4223,-2.4222,-2.4222,-2.4104,-2.4092,-2.4236,-2.4236,-2.4236,-2.4236,-2.4236,-2.4236,-2.4201,-2.4244,-2.4226,-2.4268,-2.4259,-2.4285,-2.4288,-2.4291,-2.4289,-2.4318,-2.4331,-2.4319,-2.431,-2.4323,-2.4337,-2.4331,-2.4339,-2.4367,-2.4356,-2.4246,-2.423,-2.4215,-2.4203,-2.4369,-2.4369,-2.4472,-2.4473,-2.4473]},{"header":{"parameterUnit":"m.s-1","parameterCategory":1,"la1":30.2991,"la2":30.254,"lo1":-89.0895,"lo2":-89.0444,"dy":0.0017,"dx":0.0017,"nx":28,"ny":28,"refTime":"2025-09-07T21:00:00:Z","depth":0,"parameterNumber":3,"parameterNumberName":"V-component_of_WINDS"},"data":[0,0,0,0,0,0,0,0,0,0,0,0,0,0,0,0,0,0,0,0,0,0,0,0,0,0,0,0,0,0,0,0,0,0,0,0,0,0,0,0,0,0,0,0,0,0,0,0,0,0,0,0,0,0,0,0,0,0,-6.3244,-6.3245,0,-6.3309,-6.331,-6.331,-6.3214,-6.3211,-6.3207,-6.3204,-6.3265,-6.3269,-6.3274,0,0,0,0,0,0,0,0,0,0,0,0,0,-6.303,-6.3035,-6.3244,-6.3245,-6.3246,-6.3309,-6.331,-6.3311,-6.3214,-6.321,-6.3206,-6.3202,-6.3263,-6.3269,-6.3274,0,0,0,0,0,0,0,0,0,0,0,0,0,-6.3112,-6.3036,-6.3244,-6.3206,-6.3203,-6.3309,-6.331,-6.3311,-6.3215,-6.321,-6.3205,-6.3201,-6.3261,-6.3268,-6.3275,-6.342,0,0,-6.3297,-6.33,0,0,0,0,0,0,0,0,-6.3108,-6.312,-6.321,-6.3208,-6.3205,-6.3248,-6.3257,-6.3347,-6.3217,-6.321,-6.3204,-6.3198,-6.3263,-6.327,-6.3293,-6.3423,-6.3425,-6.3297,-6.3302,-6.3305,-6.3307,0,0,0,0,0,0,0,-6.3102,-6.3117,-6.327,-6.3212,-6.3209,-6.3183,-6.3189,-6.3273,-6.3264,-6.3211,-6.3204,-6.3213,-6.326,-6.3286,-6.3293,-6.3426,-6.3297,-6.3304,-6.3308,-6.3311,-6.3677,-6.3682,0,0,0,0,0,0,-6.3102,-6.3113,-6.3267,-6.3272,-6.3143,-6.3191,-6.3198,-6.324,-6.3263,-6.3262,-6.3217,-6.3208,-6.3276,-6.3285,-6.3295,-6.3466,-6.3305,-6.3311,-6.3316,-6.3672,-6.3678,-6.3684,0,0,0,0,0,0,-6.3098,-6.3117,-6.3265,-6.319,-6.3207,-6.32,-6.3248,-6.3244,-6.3269,-6.3268,-6.3265,-6.3246,-6.3273,-6.3285,-6.339,-6.3466,-6.3315,-6.3321,-6.3665,-6.3674,-6.3681,-6.3808,0,0,0,0,0,0,-6.3092,-6.3116,-6.3172,-6.3192,-6.3212,-6.3361,-6.3253,-6.3248,-6.3282,-6.3271,-6.3294,-6.3292,-6.327,-6.338,-6.3397,-6.3473,-6.3327,-6.3658,-6.3669,-6.3679,-6.3797,-6.382,-6.3839,0,0,0,0,0,-6.3085,-6.3204,-6.3176,-6.3195,-6.3283,-6.3366,-6.3376,-6.3349,-6.3289,-6.3344,-6.3344,-6.3292,-6.3455,-6.3391,-6.341,-6.349,-6.3653,-6.3666,-6.3678,-6.3788,-6.3815,-6.3839,0,0,0,0,0,0,-6.3191,-6.3206,-6.3175,-6.3305,-6.3335,-6.3349,-6.3419,-6.3379,-6.3426,-6.3413,-6.3376,-6.3381,-6.3494,-6.3502,-6.343,-6.363,-6.3544,-6.3561,-6.3621,-6.3647,-6.3668,-6.3663,-6.3333,0,0,0,0,0,-6.323,-6.3299,-6.3307,-6.3421,-6.3438,-6.3426,-6.3461,-6.3438,-6.3467,-6.3478,-6.3485,-6.3513,-6.3571,-6.3609,-6.3662,-6.3798,-6.3801,-6.3862,-6.3883,-6.39,-6.3915,-6.3986,-6.4013,-6.3725,-6.3725,-6.3724,0,0,-6.3311,-6.3327,-6.3372,-6.3443,-6.3463,-6.3533,-6.3437,-6.3515,-6.3566,-6.3489,-6.3589,-6.3595,-6.3624,-6.3745,-6.3798,-6.3755,-6.3995,-6.3916,-6.393,-6.3935,-6.4001,-6.4029,-6.4053,-6.3733,-6.3732,-6.373,0,0,-6.3493,-6.3513,-6.361,-6.3633,-6.3666,-6.3658,-6.3681,-6.3702,-6.3703,-6.3803,-6.3748,-6.3806,-6.3906,-6.3929,-6.3954,-6.4145,-6.4098,-6.4163,-6.4272,-6.4342,-6.4365,-6.4385,-6.4452,-6.4477,-6.4178,-6.4178,-6.4178,0,-6.3588,-6.3693,-6.3664,-6.3747,-6.3778,-6.3715,-6.3811,-6.3834,-6.3882,-6.3905,-6.3856,-6.3981,-6.3995,-6.412,-6.4167,-6.4189,-6.4213,-6.416,-6.4364,-6.4384,-6.4402,-6.4466,-6.4491,-6.4185,-6.4185,-6.4184,-6.4183,0,-6.3808,-6.3882,-6.3956,-6.4006,-6.4046,-6.4135,-6.4118,-6.4161,-6.4135,-6.413,-6.4232,-6.4248,-6.4303,-6.4331,-6.4305,-6.4452,-6.4424,-6.4371,-6.4283,-6.4438,-6.4497,-6.4521,-6.4196,-6.4194,-6.4191,-6.419,0,0,-6.4059,-6.4093,-6.4121,-6.4142,-6.4174,-6.4229,-6.4315,-6.437,-6.4408,-6.4443,-6.4512,-6.4599,-6.455,-6.4578,-6.4553,-6.4615,-6.4765,-6.4554,-6.4554,-6.4592,-6.4927,-6.4966,-6.4995,-6.4734,-6.4739,-6.4742,-6.4924,0,-6.424,-6.439,-6.4367,-6.4511,-6.4577,-6.4518,-6.4592,-6.4618,-6.4617,-6.4671,-6.4668,-6.473,-6.4661,-6.4677,-6.4736,-6.4734,-6.4831,-6.4721,-6.4797,-6.48,-6.4791,-6.5026,-6.5068,-6.5239,-6.4947,-6.4951,-6.4954,0,-6.4472,-6.4518,-6.467,-6.4691,-6.4718,-6.4785,-6.4834,-6.4888,-6.4916,-6.491,-6.4942,-6.4906,-6.4989,-6.4901,-6.5014,-6.4939,-6.4969,-6.4973,-6.4978,-6.4984,-6.4886,-6.5037,-6.5293,-6.5318,-6.499,-6.4987,-6.4984,0,-6.4639,-6.4738,-6.4842,-6.4862,-6.489,-6.4939,-6.4952,-6.4975,-6.501,-6.5052,-6.5074,-6.5124,-6.5152,-6.5191,-6.5169,-6.5107,-6.5285,-6.5195,-6.5281,-6.5282,-6.5321,-6.5318,-6.5584,-6.5341,-6.5341,-6.534,-6.534,0,-6.4844,-6.4938,-6.4917,-6.4981,-6.5085,-6.5056,-6.5158,-6.5164,-6.5185,-6.5247,-6.5198,-6.5257,-6.5225,-6.528,-6.5263,-6.5359,-6.5372,-6.5368,-6.5362,-6.5372,-6.5373,-6.539,-6.5378,-6.5347,-6.5346,-6.5344,-6.5343,0,-6.5048,-6.5038,-6.5146,-6.5164,-6.5171,-6.5246,-6.526,-6.5318,-6.5313,-6.5392,-6.5409,-6.54,-6.5463,-6.5446,-6.5513,-6.5502,-6.5623,-6.5602,-6.5614,-6.5609,-6.5695,-6.5687,-6.5981,-6.6018,-6.5752,-6.5755,-6.5757,0,-6.5179,-6.525,-6.5277,-6.5316,-6.5334,-6.5397,-6.5433,-6.5407,-6.5445,-6.5483,-6.5536,-6.5596,-6.5641,-6.5745,-6.5743,-6.5794,-6.5774,-6.5873,-6.5781,-6.5789,-6.5774,-6.577,-6.5777,-6.5891,-6.5895,-6.5897,-6.5899,0,-6.5412,-6.5404,-6.5458,-6.5512,-6.5557,-6.5597,-6.5632,-6.5666,-6.5642,-6.5688,-6.5753,-6.5789,-6.5859,-6.5918,-6.5965,-6.5975,-6.5933,-6.5928,-6.5951,-6.5961,-6.5965,-6.5964,-6.5663,-6.5921,-6.5919,-6.5918,-6.5916,-6.5915,-6.5583,-6.5644,-6.5672,-6.5734,-6.5759,-6.5793,-6.5849,-6.5851,-6.5906,-6.5962,-6.5943,-6.6017,-6.6042,-6.6101,-6.6118,-6.6174,-6.6136,-6.6169,-6.6177,-6.6185,-6.6196,-6.5957,-6.6183,-6.6182,-6.6181,-6.6181,-6.618,0,-6.5813,-6.5828,-6.5886,-6.5938,-6.5987,-6.5945,-6.5982,-6.6025,-6.6092,-6.612,-6.6166,-6.6241,-6.6297,-6.6301,-6.6353,-6.6398,-6.6379,-6.6412,-6.6408,-6.6411,-6.6227,-6.6202,-6.6426,-6.6426,-6.6426,-6.6426,-6.6426,-6.6426,-6.5938,-6.6039,-6.6034,-6.6146,-6.616,-6.6234,-6.6258,-6.6289,-6.6311,-6.6397,-6.6445,-6.6447,-6.6465,-6.6519,-6.6568,-6.6567,-6.6589,-6.6629,-6.6621,-6.6449,-6.6424,-6.6401,-6.6377,-6.6634,-6.6634,-6.68,-6.6801,-6.6803]}]]